Weather History for KHRI - September, 2012

Change the Weather History Date:

Tuesday, September 4, 2012

  Actual Average Record
Temperature  
Mean Temperature 66 °F -  
Max Temperature 87 °F 83 °F 102 °F (1934)
Min Temperature 46 °F 52 °F 38 °F (1929)
Cooling Degree Days 1    
Growing Degree Days 16 (Base 50)    
Moisture  
Dew Point 43 °F    
Average Humidity 47    
Maximum Humidity 77    
Minimum Humidity 19    
Precipitation  
Precipitation 0.00 in - - ()
Sea Level Pressure  
Sea Level Pressure 30.07 in    
Wind  
Wind Speed 5 mph (SE)    
Max Wind Speed 9 mph    
Max Gust Speed -    
Visibility 10 miles    
Events      
Averages and records for this station are not official NWS values.
T = Trace of Precipitation, MM = Missing Value Source: NWS Daily Summary

Daily Weather History Graph

Daily Weather History Graph

Search for Another Location

Airport or City:

Trip Planner

Search our weather history database for the weather conditions in past years. The results will help you decide how hot, cold, wet, or windy it might be!

Date:

Astronomy

Sep. 04, 2012 Rise Set
Actual Time 6:22 AM PDT 7:28 PM PDT
Civil Twilight 5:51 AM PDT 7:58 PM PDT
Nautical Twilight 5:15 AM PDT 8:35 PM PDT
Astronomical Twilight 4:36 AM PDT 9:13 PM PDT
Moon 9:06 PM PDT (9/4) 10:51 AM PDT (9/4)
Length of Visible Light 14h 06m
Length of Day
13h 05m
Waning Gibbous, 83% of the Moon is Illuminated
Sep 4
Waning Gibbous
Sep 8
Last Quarter
Sep 15
New
Sep 22
First Quarter
Sep 29
Full

Hourly Weather History & Observations

Time (PDT) Temp. Windchill Dew Point Humidity Pressure Visibility Wind Dir Wind Speed Gust Speed Precip Events Conditions
12:53 AM 57.9 °F - 41.0 °F 53% 30.01 in 10.0 mi SSW 3.5 mph - N/A   Clear
1:53 AM 53.1 °F - 42.1 °F 66% 30.04 in 10.0 mi East 6.9 mph - N/A   Clear
2:53 AM 51.1 °F - 42.1 °F 71% 30.05 in 10.0 mi SE 5.8 mph - N/A   Clear
3:53 AM 51.1 °F - 41.0 °F 68% 30.06 in 10.0 mi South 5.8 mph - N/A   Clear
4:53 AM 51.1 °F - 39.0 °F 63% 30.09 in 10.0 mi SSE 4.6 mph - N/A   Clear
5:53 AM 46.9 °F - 39.9 °F 77% 30.10 in 10.0 mi SSE 3.5 mph - N/A   Clear
6:53 AM 46.0 °F 44.8 °F 39.0 °F 76% 30.12 in 10.0 mi ESE 3.5 mph - N/A   Clear
7:53 AM 59.0 °F - 42.1 °F 53% 30.14 in 10.0 mi South 3.5 mph - N/A   Clear
8:53 AM 64.0 °F - 46.0 °F 52% 30.14 in 10.0 mi WNW 3.5 mph - N/A   Clear
9:53 AM 69.1 °F - 46.9 °F 45% 30.15 in 10.0 mi Calm Calm - N/A   Clear
10:53 AM 73.0 °F - 46.0 °F 38% 30.14 in 10.0 mi Calm Calm - N/A   Clear
11:53 AM 78.1 °F - 46.0 °F 32% 30.13 in 10.0 mi Variable 5.8 mph - N/A   Clear
12:53 PM 81.0 °F - 44.1 °F 27% 30.11 in 10.0 mi Variable 5.8 mph - N/A   Clear
1:53 PM 82.9 °F - 41.0 °F 23% 30.09 in 10.0 mi ENE 8.1 mph - N/A   Clear
3:53 PM 86.0 °F - 39.0 °F 19% 30.05 in 10.0 mi ENE 5.8 mph - N/A   Clear
4:53 PM 84.9 °F - 39.0 °F 20% 30.03 in 10.0 mi NNE 6.9 mph - N/A   Clear
5:53 PM 84.0 °F - 41.0 °F 22% 30.02 in 10.0 mi ENE 9.2 mph - N/A   Clear
6:53 PM 79.0 °F - 43.0 °F 28% 30.01 in 10.0 mi ENE 5.8 mph - N/A   Clear
7:53 PM 73.0 °F - 45.0 °F 37% 30.01 in 10.0 mi ENE 5.8 mph - N/A   Clear
8:53 PM 64.9 °F - 46.0 °F 50% 30.02 in 10.0 mi ESE 3.5 mph - N/A   Clear
9:53 PM 63.0 °F - 45.0 °F 52% 30.02 in 10.0 mi SSE 5.8 mph - N/A   Clear
10:53 PM 60.1 °F - 43.0 °F 53% 30.02 in 10.0 mi SSW 5.8 mph - N/A   Clear
11:53 PM 57.0 °F - 41.0 °F 55% 30.02 in 10.0 mi South 6.9 mph - N/A   Clear